Location: Indian Springs
(36.5700°N, 115.6700°W)
Time: 16:04:35
(UTC-07:00)

Amateur Radio Satellites - All Passes

Search period start: 24 September 2017 15:34
Search period end: 25 September 2017 15:34
Location: Indian Springs, 36.5700°N, 115.6700°W

Satellite Date Start Highest point End Downlink Frequencies (MHz)
Time Altitude Azimuth
DX 1 24 Sep 15:38:54 15:40:42 12° 295° (WNW) 15:42:29 434.975-435.025
CUBESAT XI-V 24 Sep 15:58:24 16:00:55 14° 92° (E) 16:03:26 437.345
PCSat 24 Sep 15:59:12 16:02:51 18° 311° (NW) 16:06:31 145.827
ITUPSAT 1 24 Sep 16:06:53 16:11:43 89° 103° (ESE) 16:16:32 437.325
DOVE 4 24 Sep 16:18:08 16:21:10 19° 69° (ENE) 16:24:08 437.250
AO-7 24 Sep 16:30:20 16:37:43 35° 262° (W) 16:45:08 .
RS-15 24 Sep 16:32:28 16:41:47 29° 258° (WSW) 16:50:46 29.354- 29.394
ITAMSAT 1 24 Sep 16:33:09 16:37:19 24° 264° (W) 16:41:30 435.822/435.867
BEESAT 24 Sep 16:43:10 16:47:34 37° 289° (WNW) 16:51:56 436.000
CUTE-I 24 Sep 16:51:35 16:54:03 13° 62° (ENE) 16:56:32 437.470
MOZHAYETS 4 24 Sep 17:05:38 17:09:02 20° 292° (WNW) 17:12:24
XW-2C 24 Sep 17:07:59 17:10:18 16° 68° (ENE) 17:12:37 145.795 - 145.815
KKS-1 24 Sep 17:16:39 17:20:42 34° 98° (E) 17:24:45 437.445
LilacSat-2 24 Sep 17:20:44 17:23:53 24° 71° (ENE) 17:27:01 437.200
CUBESAT XI-V 24 Sep 17:34:04 17:38:30 47° 287° (WNW) 17:42:54 437.345
KAITUO 1B 24 Sep 17:34:39 17:37:44 24° 71° (ENE) 17:40:48 145.475/437.950
STARS 24 Sep 17:38:08 17:41:39 23° 96° (E) 17:45:09 437.465
DOVE 4 24 Sep 17:54:39 17:58:39 33° 262° (W) 18:02:31 437.250
XW-2D 24 Sep 18:06:26 18:10:16 88° 259° (W) 18:14:08 145.860 - 145.880
CUTE 1.7 + AOD 2 24 Sep 18:07:22 18:10:02 16° 67° (ENE) 18:12:42 437.475
Tancredo 1 24 Sep 18:17:46 18:20:19 43° 135° (SE) 18:22:54 437.200
XW-2F 24 Sep 18:17:53 18:21:41 68° 258° (WSW) 18:25:31 145.980 - 146.000
XW-2B 24 Sep 18:18:53 18:22:41 63° 260° (W) 18:26:31 145.730 - 145.750
CUTE-I 24 Sep 18:28:09 18:33:26 72° 258° (WSW) 18:38:45 437.470
HO-68 24 Sep 18:30:02 18:36:48 49° 68° (ENE) 18:43:37 435.675
XW-2A 24 Sep 18:36:09 18:36:35 10° 67° (ENE) 18:37:02 145.665 - 145.685
NUDT-PHONESAT 24 Sep 18:37:21 18:40:59 49° 260° (W) 18:44:39 437.300
XW-2C 24 Sep 18:40:45 18:44:11 31° 263° (W) 18:47:39 145.795 - 145.815
CUBEBUG 2 24 Sep 18:48:00 18:51:29 25° 70° (ENE) 18:55:03 437.445
NO-84 24 Sep 18:50:05 18:50:59 11° 30° (NNE) 18:51:50 435.350 FM
UWE-3 24 Sep 18:53:11 18:55:56 17° 67° (ENE) 18:58:44 435.000/436.395/437.385
KKS-1 24 Sep 18:53:49 18:56:59 20° 293° (WNW) 19:00:10 437.445
LilacSat-2 24 Sep 18:55:09 18:58:03 20° 265° (W) 19:00:58 437.200
AO-85 24 Sep 18:57:34 18:59:21 13° 109° (ESE) 19:01:09 145.980
KAITUO 1B 24 Sep 19:08:51 19:11:38 19° 265° (W) 19:14:25 145.475/437.950
SEEDS 24 Sep 19:10:52 19:14:59 53° 75° (ENE) 19:19:08 437.485
STARS 24 Sep 19:14:10 19:17:55 28° 290° (WNW) 19:21:39 437.465
ISS 24 Sep 19:15:11 19:17:48 22° 131° (SE) 19:20:25 437.550
JUGNU 24 Sep 19:23:30 19:26:42 15° 176° (S) 19:29:55 437.505
BEESAT 3 24 Sep 19:24:58 19:28:57 77° 300° (WNW) 19:32:59 437.485
AAUSAT CUBESAT 2 24 Sep 19:30:05 19:33:55 37° 73° (ENE) 19:37:45 437.432
Oscar 11 24 Sep 19:32:16 19:34:46 15° 67° (ENE) 19:37:17 .
STRAND 1 24 Sep 19:32:36 19:37:12 32° 97° (E) 19:41:46 437.568
AO-73 24 Sep 19:33:38 19:37:00 22° 69° (ENE) 19:40:26 145.935
BEESAT 2 24 Sep 19:35:33 19:39:13 37° 114° (ESE) 19:42:58 435.950
ZACube-1 24 Sep 19:36:54 19:40:34 27° 70° (ENE) 19:44:20 437.345
CUTE 1.7 + AOD 2 24 Sep 19:41:32 19:45:31 38° 262° (W) 19:49:32 437.475
nSIGHT-1 24 Sep 19:51:29 19:54:41 69° 137° (SE) 19:57:54 .
Tancredo 1 24 Sep 19:53:22 19:54:56 14° 331° (NNW) 19:56:32 437.200
XW-2A 24 Sep 20:05:43 20:08:54 37° 261° (W) 20:12:06 145.665 - 145.685
HO-68 24 Sep 20:18:42 20:24:41 29° 264° (W) 20:30:43 435.675
CUBEBUG 2 24 Sep 20:24:36 20:28:00 23° 265° (W) 20:31:31 437.445
NO-84 24 Sep 20:25:46 20:28:42 65° 227° (SW) 20:31:30 435.350 FM
UWE-3 24 Sep 20:28:02 20:32:01 38° 262° (W) 20:36:08 435.000/436.395/437.385
AO-85 24 Sep 20:35:38 20:39:19 40° 304° (NW) 20:43:03 145.980
DELFI C3 24 Sep 20:47:33 20:50:32 21° 70° (ENE) 20:53:32 145.870
SEEDS 24 Sep 20:49:53 20:50:56 11° 269° (W) 20:51:59 437.485
ISS 24 Sep 20:51:12 20:54:09 31° 326° (NW) 20:57:07 437.550
SRMSAT 24 Sep 20:52:17 20:53:58 11° 169° (SSE) 20:55:40 437.500
FO-29 24 Sep 20:55:29 21:00:10 26° 97° (E) 21:05:16 435.910
EO-88 24 Sep 20:59:25 21:01:30 15° 68° (ENE) 21:03:34 145.990 - 145.960
Oscar 11 24 Sep 21:06:23 21:10:30 43° 261° (W) 21:14:41 .
AAUSAT CUBESAT 2 24 Sep 21:07:04 21:09:28 15° 267° (W) 21:11:53 437.432
AO-73 24 Sep 21:09:20 21:13:02 28° 264° (W) 21:16:52 145.935
STRAND 1 24 Sep 21:11:57 21:16:13 27° 292° (WNW) 21:20:28 437.568
JUGNU 24 Sep 21:12:02 21:14:54 14° 187° (S) 21:17:46 437.505
ZACube-1 24 Sep 21:13:23 21:16:47 23° 266° (W) 21:20:17 437.345
BEESAT 2 24 Sep 21:14:17 21:17:05 18° 311° (NW) 21:19:56 435.950
UNISAT 6 24 Sep 21:17:49 21:18:36 10° 90° (E) 21:19:24 437.425
nSIGHT-1 24 Sep 21:29:17 21:31:18 15° 334° (NNW) 21:33:21 .
Max Valier Satellite 24 Sep 21:33:34 21:37:12 57° 75° (ENE) 21:40:52 145.860
YUBILEINY 24 Sep 21:37:10 21:40:47 13° 62° (ENE) 21:44:23 435.215
TIGRISAT 24 Sep 21:38:59 21:42:08 18° 93° (E) 21:45:16 435.000
SO-50 24 Sep 22:02:55 22:06:49 27° 51° (NE) 22:10:45 436.795
DELFI C3 24 Sep 22:21:55 22:25:08 24° 264° (W) 22:28:22 145.870
EO-88 24 Sep 22:31:36 22:34:51 30° 263° (W) 22:38:08 145.990 - 145.960
SRMSAT 24 Sep 22:39:05 22:42:18 15° 179° (S) 22:45:33 437.500
FO-29 24 Sep 22:40:06 22:45:17 40° 289° (WNW) 22:51:00 435.910
UNISAT 6 24 Sep 22:51:01 22:55:41 68° 284° (WNW) 23:00:20 437.425
PCSat 24 Sep 23:04:16 23:09:05 31° 55° (NE) 23:13:51 145.827
AIST 2D 24 Sep 23:06:16 23:08:22 15° 94° (E) 23:10:27 435.315
TIGRISAT 24 Sep 23:14:32 23:18:55 41° 288° (WNW) 23:23:19 435.000
LO-87 24 Sep 23:22:57 23:26:25 59° 260° (W) 23:29:55 145.935 - 145.965
PRISM 24 Sep 23:23:09 23:27:06 53° 286° (WNW) 23:31:03 437.425
POLYITAN 1 24 Sep 23:25:40 23:26:21 10° 91° (E) 23:27:01 437.675
ESTCUBE 1 24 Sep 23:26:37 23:31:08 85° 78° (ENE) 23:35:42 437.505/2401.250
EO-79 24 Sep 23:28:46 23:30:15 12° 92° (E) 23:31:44 145.935-145.965
YUBILEINY 24 Sep 23:30:21 23:39:06 76° 82° (E) 23:47:52 435.215
SPROUT 24 Sep 23:38:23 23:41:50 25° 70° (ENE) 23:45:18 437.525
QB50P2 24 Sep 23:41:31 23:44:35 19° 94° (E) 23:47:38 145.880/145.840
SO-50 24 Sep 23:43:12 23:47:15 31° 247° (WSW) 23:51:20 436.795
VELOX 1 24 Sep 23:50:08 23:53:46 26° 69° (ENE) 23:57:25 145.980
NANOSAT C BR1 25 Sep 00:14:42 00:18:40 37° 98° (E) 00:22:36 145.865
SRMSAT 25 Sep 00:28:13 00:30:39 13° 189° (S) 00:33:05 437.500
50 SAT 25 Sep 00:30:30 00:32:47 18° 70° (ENE) 00:35:03 437.505
AIST 2D 25 Sep 00:38:37 00:41:32 25° 288° (WNW) 00:44:25 435.315
Tancredo 1 25 Sep 00:39:54 00:41:42 16° 30° (NNE) 00:43:30 437.200
DUCHIFAT 1 25 Sep 00:42:05 00:46:20 70° 102° (ESE) 00:50:34 145.980
UKube-1 25 Sep 00:45:02 00:47:48 17° 67° (ENE) 00:50:35 .
PCSat 25 Sep 00:47:37 00:52:25 33° 251° (WSW) 00:57:11 145.827
M-CUBED/EXP-1 PRIME 25 Sep 00:52:22 00:54:34 17° 100° (E) 00:56:45 437.505
DX 1 25 Sep 00:53:51 00:57:44 33° 71° (ENE) 01:01:38 434.975-435.025
POLYITAN 1 25 Sep 00:58:12 01:02:25 57° 286° (WNW) 01:06:37 437.675
EO-79 25 Sep 01:02:06 01:06:15 51° 286° (WNW) 01:10:24 145.935-145.965
BUGSAT 1 25 Sep 01:11:34 01:15:29 36° 98° (E) 01:19:24 437.445
SPROUT 25 Sep 01:14:15 01:17:38 23° 264° (W) 01:21:03 437.525
QB50P2 25 Sep 01:16:35 01:20:22 31° 289° (WNW) 01:24:09 145.880/145.840
VELOX 1 25 Sep 01:26:31 01:30:07 24° 264° (W) 01:33:43 145.980
YUBILEINY 25 Sep 01:29:09 01:34:52 20° 280° (W) 01:40:37 435.215
O/OREOS (USA 219) 25 Sep 01:43:08 01:47:26 47° 106° (ESE) 01:51:47 437.305
ISS 25 Sep 01:45:02 01:47:05 15° 26° (NNE) 01:49:08 437.550
NANOSAT C BR1 25 Sep 01:51:19 01:54:02 17° 293° (WNW) 01:56:45 145.865
Gurwin Techsat 1B 25 Sep 01:57:10 02:01:59 34° 97° (E) 02:06:47 435.225
Oscar 19 25 Sep 01:59:41 02:04:46 55° 101° (E) 02:09:46 437.125/150
50 SAT 25 Sep 02:02:43 02:05:07 19° 264° (W) 02:07:32 437.505
BEESAT 25 Sep 02:10:35 02:13:51 19° 66° (ENE) 02:17:07 436.000
Tancredo 1 25 Sep 02:13:46 02:16:15 34° 225° (SW) 02:18:43 437.200
UKube-1 25 Sep 02:19:32 02:23:30 37° 261° (W) 02:27:31 .
nSIGHT-1 25 Sep 02:20:54 02:23:48 29° 33° (NNE) 02:26:41 .
M-CUBED/EXP-1 PRIME 25 Sep 02:26:33 02:28:57 19° 295° (WNW) 02:31:19 437.505
MOZHAYETS 4 25 Sep 02:27:28 02:31:16 26° 69° (ENE) 02:35:05
DX 1 25 Sep 02:30:58 02:33:57 18° 265° (W) 02:36:57 434.975-435.025
AO-7 25 Sep 02:43:25 02:48:05 16° 92° (E) 02:52:43 .
BUGSAT 1 25 Sep 02:47:49 02:50:30 17° 293° (WNW) 02:53:12 437.445
CUBESAT XI-V 25 Sep 03:00:23 03:02:07 12° 64° (ENE) 03:03:50 437.345
ITAMSAT 1 25 Sep 03:09:42 03:12:33 15° 93° (E) 03:15:23 435.822/435.867
ITUPSAT 1 25 Sep 03:10:51 03:15:37 79° 77° (ENE) 03:20:25 437.325
ISS 25 Sep 03:20:36 03:23:53 74° 224° (SW) 03:27:09 437.550
O/OREOS (USA 219) 25 Sep 03:24:25 03:27:06 15° 302° (WNW) 03:29:49 437.305
Gurwin Techsat 1B 25 Sep 03:37:23 03:41:45 27° 293° (WNW) 03:46:07 435.225
Oscar 19 25 Sep 03:40:25 03:43:34 17° 296° (WNW) 03:46:43 437.125/150
BEESAT 3 25 Sep 03:44:14 03:47:39 27° 53° (NE) 03:50:59 437.485
BEESAT 25 Sep 03:46:47 03:51:16 41° 261° (W) 03:55:47 436.000
BEESAT 2 25 Sep 03:56:35 03:58:25 13° 46° (NE) 04:00:15 435.950
nSIGHT-1 25 Sep 03:57:20 04:00:02 24° 229° (SW) 04:02:44 .
MOZHAYETS 4 25 Sep 04:04:23 04:08:18 27° 264° (W) 04:12:15
KKS-1 25 Sep 04:12:36 04:16:07 24° 69° (ENE) 04:19:39 437.445
STARS 25 Sep 04:33:11 04:35:47 16° 66° (ENE) 04:38:24 437.465
AO-7 25 Sep 04:33:23 04:41:43 89° 288° (WNW) 04:50:00 .
CUBESAT XI-V 25 Sep 04:34:12 04:38:52 66° 259° (W) 04:43:34 437.345
RS-15 25 Sep 04:36:49 04:48:39 60° 112° (ESE) 05:00:39 29.354- 29.394
ITAMSAT 1 25 Sep 04:47:13 04:52:20 58° 287° (WNW) 04:57:26 435.822/435.867
AO-85 25 Sep 05:07:42 05:12:13 74° 59° (ENE) 05:17:06 145.980
BEESAT 3 25 Sep 05:21:58 05:25:02 22° 249° (WSW) 05:28:02 437.485
BEESAT 2 25 Sep 05:32:33 05:36:33 60° 243° (WSW) 05:40:28 435.950
XW-2D 25 Sep 05:43:33 05:44:41 11° 92° (E) 05:45:49 145.860 - 145.880
KKS-1 25 Sep 05:48:47 05:52:32 27° 263° (W) 05:56:17 437.445
XW-2F 25 Sep 05:53:44 05:55:44 14° 93° (E) 05:57:43 145.980 - 146.000
DOVE 4 25 Sep 05:54:32 05:58:50 72° 102° (ESE) 06:03:21 437.250
XW-2B 25 Sep 05:54:55 05:57:12 15° 93° (E) 05:59:28 145.730 - 145.750
STARS 25 Sep 06:07:39 06:11:45 41° 261° (W) 06:15:53 437.465
NUDT-PHONESAT 25 Sep 06:10:44 06:13:12 17° 94° (E) 06:15:40 437.300
XW-2C 25 Sep 06:15:29 06:18:49 29° 97° (E) 06:22:07 145.795 - 145.815
AO-7 25 Sep 06:28:07 06:33:21 19° 306° (NW) 06:38:35 .
LilacSat-2 25 Sep 06:29:38 06:33:21 48° 99° (E) 06:37:01 437.200
KAITUO 1B 25 Sep 06:41:10 06:44:46 45° 99° (E) 06:48:19 145.475/437.950
STRAND 1 25 Sep 06:46:05 06:50:40 36° 70° (ENE) 06:55:18 437.568
CUTE-I 25 Sep 06:47:37 06:52:52 56° 101° (E) 06:58:06 437.470
RS-15 25 Sep 06:50:11 07:01:39 43° 314° (NW) 07:13:11 29.354- 29.394
AO-85 25 Sep 06:51:02 06:52:10 11° 252° (WSW) 06:53:18 145.980
SEEDS 25 Sep 07:00:06 07:00:32 10° 91° (E) 07:00:59 437.485
XW-2D 25 Sep 07:15:28 07:19:02 40° 286° (WNW) 07:22:34 145.860 - 145.880
XW-2F 25 Sep 07:26:32 07:29:55 32° 287° (WNW) 07:33:16 145.980 - 146.000
XW-2B 25 Sep 07:28:05 07:31:25 29° 288° (WNW) 07:34:42 145.730 - 145.750
CUTE 1.7 + AOD 2 25 Sep 07:28:31 07:32:32 41° 98° (E) 07:36:30 437.475
XW-2A 25 Sep 07:30:41 07:32:32 14° 94° (E) 07:34:21 145.665 - 145.685
NUDT-PHONESAT 25 Sep 07:43:56 07:47:03 25° 289° (WNW) 07:50:08 437.300
HO-68 25 Sep 07:47:28 07:54:37 65° 103° (ESE) 08:01:44 435.675
XW-2C 25 Sep 07:50:21 07:52:44 16° 291° (WNW) 07:55:07 145.795 - 145.815
LilacSat-2 25 Sep 08:06:35 08:07:08 10° 294° (WNW) 08:07:39 437.200
CUBEBUG 2 25 Sep 08:16:13 08:20:58 83° 100° (E) 08:25:45 437.445
KAITUO 1B 25 Sep 08:17:39 08:18:17 10° 294° (WNW) 08:18:56 145.475/437.950
UWE-3 25 Sep 08:19:22 08:23:56 51° 99° (E) 08:28:27 435.000/436.395/437.385
STRAND 1 25 Sep 08:25:53 08:29:53 23° 265° (W) 08:33:55 437.568
CUTE-I 25 Sep 08:29:02 08:32:25 17° 296° (WNW) 08:35:47 437.470
SEEDS 25 Sep 08:32:26 08:36:31 53° 285° (WNW) 08:40:33 437.485
TIGRISAT 25 Sep 08:37:18 08:38:27 11° 64° (ENE) 08:39:36 435.000
AAUSAT CUBESAT 2 25 Sep 08:49:20 08:53:27 81° 281° (W) 08:57:32 437.432
FO-29 25 Sep 08:49:50 08:55:29 64° 74° (ENE) 09:00:43 435.910
Oscar 11 25 Sep 08:55:50 08:59:55 39° 98° (E) 09:03:58 .
AO-73 25 Sep 08:58:44 09:03:18 66° 101° (E) 09:07:47 145.935
XW-2A 25 Sep 09:02:22 09:05:14 25° 288° (WNW) 09:08:05 145.665 - 145.685
ZACube-1 25 Sep 09:02:43 09:07:20 83° 102° (ESE) 09:11:53 437.345
CUTE 1.7 + AOD 2 25 Sep 09:05:38 09:07:58 15° 293° (WNW) 09:10:18 437.475
RS-15 25 Sep 09:11:24 09:18:50 17° 345° (NNW) 09:26:12 29.354- 29.394
HO-68 25 Sep 09:36:22 09:41:43 23° 299° (WNW) 09:47:04 435.675
UNISAT 6 25 Sep 09:47:02 09:51:22 77° 75° (ENE) 09:55:48 437.425
UWE-3 25 Sep 09:57:16 09:59:54 15° 294° (WNW) 10:02:32 435.000/436.395/437.385
DELFI C3 25 Sep 10:00:15 10:04:01 46° 99° (E) 10:07:46 145.870
EO-88 25 Sep 10:02:31 10:05:33 24° 96° (E) 10:08:33 145.990 - 145.960
PRISM 25 Sep 10:09:19 10:13:24 73° 76° (ENE) 10:17:29 437.425
TIGRISAT 25 Sep 10:10:15 10:14:30 62° 259° (W) 10:18:55 435.000
Oscar 11 25 Sep 10:33:03 10:35:41 16° 293° (WNW) 10:38:19 .
QB50P2 25 Sep 10:33:44 10:34:46 11° 64° (ENE) 10:35:48 145.880/145.840
YUBILEINY 25 Sep 10:36:11 10:40:53 16° 78° (ENE) 10:45:35 435.215
AO-73 25 Sep 10:37:29 10:38:53 11° 296° (WNW) 10:40:18 145.935
FO-29 25 Sep 10:38:16 10:40:54 13° 267° (W) 10:43:27 435.910
Max Valier Satellite 25 Sep 10:39:19 10:43:03 70° 284° (WNW) 10:46:44 145.860
LO-87 25 Sep 10:53:42 10:55:10 12° 93° (E) 10:56:39 145.935 - 145.965
NANOSAT C BR1 25 Sep 11:04:51 11:07:55 20° 68° (ENE) 11:11:00 145.865
AIST 2D 25 Sep 11:09:20 11:12:52 71° 77° (ENE) 11:16:25 435.315
ESTCUBE 1 25 Sep 11:22:16 11:25:40 21° 95° (E) 11:29:03 437.505/2401.250
RS-15 25 Sep 11:29:59 11:38:17 20° 23° (NNE) 11:46:20 29.354- 29.394
DUCHIFAT 1 25 Sep 11:31:18 11:35:05 35° 72° (ENE) 11:38:55 145.980
M-CUBED/EXP-1 PRIME 25 Sep 11:35:13 11:38:20 20° 66° (ENE) 11:41:19 437.505
EO-88 25 Sep 11:36:31 11:38:59 17° 291° (WNW) 11:41:26 145.990 - 145.960
DELFI C3 25 Sep 11:37:05 11:38:19 11° 294° (WNW) 11:39:34 145.870
NO-84 25 Sep 11:38:37 11:42:27 41° 129° (SE) 11:46:01 435.350 FM
POLYITAN 1 25 Sep 11:47:43 11:51:54 74° 77° (ENE) 11:56:09 437.675
EO-79 25 Sep 11:51:25 11:55:36 83° 79° (E) 11:59:50 145.935-145.965
O/OREOS (USA 219) 25 Sep 11:55:20 11:59:54 61° 68° (ENE) 12:04:27 437.305
BUGSAT 1 25 Sep 11:59:38 12:02:23 18° 68° (ENE) 12:05:10 437.445
QB50P2 25 Sep 12:05:52 12:10:00 58° 259° (W) 12:14:11 145.880/145.840
SO-50 25 Sep 12:16:45 12:18:55 13° 108° (ESE) 12:21:07 436.795
LO-87 25 Sep 12:25:24 12:28:40 33° 287° (WNW) 12:31:57 145.935 - 145.965
YUBILEINY 25 Sep 12:27:41 12:36:25 88° 279° (W) 12:45:09 435.215
NANOSAT C BR1 25 Sep 12:39:47 12:43:24 29° 263° (W) 12:47:05 145.865
ESTCUBE 1 25 Sep 12:58:31 13:02:28 31° 289° (WNW) 13:06:22 437.505/2401.250
SPROUT 25 Sep 13:01:03 13:05:20 68° 102° (ESE) 13:09:35 437.525
DUCHIFAT 1 25 Sep 13:08:15 13:10:50 16° 267° (W) 13:13:26 145.980
M-CUBED/EXP-1 PRIME 25 Sep 13:08:47 13:12:35 30° 257° (WSW) 13:16:09 437.505
Oscar 19 25 Sep 13:13:52 13:18:59 63° 74° (ENE) 13:24:08 437.125/150
Gurwin Techsat 1B 25 Sep 13:15:44 13:20:43 43° 71° (ENE) 13:25:44 435.225
NO-84 25 Sep 13:16:52 13:19:57 22° 323° (NW) 13:22:51 435.350 FM
VELOX 1 25 Sep 13:17:44 13:22:08 73° 102° (ESE) 13:26:31 145.980
50 SAT 25 Sep 13:24:33 13:27:12 22° 97° (E) 13:29:49 437.505
BUGSAT 1 25 Sep 13:33:58 13:37:30 29° 263° (W) 13:41:04 437.445
O/OREOS (USA 219) 25 Sep 13:37:35 13:38:41 11° 263° (W) 13:39:48 437.305
AO-7 25 Sep 13:40:01 13:45:47 21° 55° (NE) 13:51:32 .
RS-15 25 Sep 13:42:32 13:54:18 57° 52° (NE) 14:05:23 29.354- 29.394
PCSat 25 Sep 13:43:04 13:48:11 45° 111° (ESE) 13:53:20 145.827
SO-50 25 Sep 13:54:30 13:58:53 54° 303° (WNW) 14:03:18 436.795
UKube-1 25 Sep 14:08:31 14:12:35 40° 99° (E) 14:16:37 .
DX 1 25 Sep 14:19:45 14:24:06 90° 280° (W) 14:28:26 434.975-435.025
ITAMSAT 1 25 Sep 14:25:13 14:28:45 19° 65° (ENE) 14:32:17 435.822/435.867
YUBILEINY 25 Sep 14:29:37 14:34:27 16° 296° (WNW) 14:39:19 435.215
Oscar 19 25 Sep 14:56:11 14:58:40 13° 268° (W) 15:01:10 437.125/150
Gurwin Techsat 1B 25 Sep 14:56:56 15:00:49 21° 266° (W) 15:04:43 435.225
50 SAT 25 Sep 14:57:29 14:59:28 15° 291° (WNW) 15:01:26 437.505
ITUPSAT 1 25 Sep 15:14:22 15:18:16 24° 96° (E) 15:22:08 437.325
